Location: Waco, TX
(31.5480°N, 97.1670°W)
Time: 08:57:22
(UTC-05:00)

ISS - Pass Details

Date: 20 October 2018
Orbit: 403 x 408 km, 51.6° (Epoch: 16 October)

Event Time Altitude Azimuth Distance (km) Brightness Sun altitude
Rises 08:07:56 0° 195° (SSW) 2,301 0.0 5.9°
Reaches altitude 10° 08:10:21 10° 177° (S) 1,448 -0.7 6.4°
Maximum altitude 08:12:48 20° 128° (SE) 1,003 -0.4 6.9°
Drops below altitude 10° 08:15:16 10° 79° (ENE) 1,457 0.3 7.4°
Sets 08:17:42 0° 61° (ENE) 2,321 0.7 7.9°
